Home > Weather > Udon Thani > Past weeks

Flag for Thailand Past Weather in Udon Thani, Thailand — Yesterday and Last 2 Weeks

Now
86 °F

Passing clouds.


Feels Like: 95 °F
Forecast: 78 / 94 °F
Wind: 5 mph from Southwest

Location: Udon Thani Airport

Current Time: Jul 24, 2016 at 7:56:03 PM

Latest Report: Jul 24, 2016 at 7:00 PM


Visibility: N/A

Pressure: 29.74 "Hg

Humidity: 70%

Dew Point: 75 °F

Location of Udon ThaniLocation

Past Weather in Udon Thani — Graph

°F

Udon Thani Temperature Yesterday

Maximum temperature yesterday: 90 °F (at 11:00 AM)
Minimum temperature yesterday: 75 °F (at 1:00 PM)
Average temperature yesterday: 79 °F

High & Low Weather Summary for the Past Weeks

 TemperatureHumidityPressure
High97 °F (Jul 17, 3:00 PM)100% (Jul 11, 5:00 AM)29.89 "Hg (Jul 11, 5:00 AM)
Low73 °F (Jul 18, 9:00 PM)50% (Jul 18, 4:00 PM)29.56 "Hg (Jul 10, 4:00 PM)
Average83 °F80%29.74 "Hg
* Reported Jul 9 6:00 PM — Jul 24 6:00 PM, Udon Thani, Weather by CustomWeather, © 2016

Note: Actual official high and low records may vary slightly from our data, if they occured in-between our weather recording intervals... More about our weather records

Advertising

Udon Thani Weather History for the Previous 24 Hours

Scroll right to see more
 ConditionsComfort  
Time TempWeatherWind HumidityBarometerVisibility
6:00 PM
Sun, Jul 24
88 °FScattered clouds.6 mph66%29.74 "HgN/A
5:00 PM90 °FScattered clouds.6 mph67%29.74 "HgN/A
4:00 PM90 °FScattered clouds.7 mph67%29.71 "HgN/A
3:00 PM91 °FScattered clouds.3 mph63%29.74 "HgN/A
2:00 PM90 °FScattered clouds.6 mph63%29.77 "HgN/A
1:00 PM90 °FScattered clouds.3 mph63%29.80 "HgN/A
12:00 PM88 °FPassing clouds.5 mph62%29.83 "HgN/A
11:00 AM86 °FPassing clouds.3 mph66%29.86 "HgN/A
10:00 AM82 °FPassing clouds.3 mph74%29.86 "HgN/A
9:00 AM79 °FPassing clouds.3 mph89%29.86 "HgN/A
8:00 AM77 °FSunny.No wind89%29.86 "Hg10 mi
7:00 AM75 °FSunny.No wind94%29.86 "Hg10 mi
6:00 AM73 °FSunny.2 mph100%29.83 "Hg10 mi
5:00 AM75 °FClear.2 mph94%29.80 "Hg10 mi
4:00 AM73 °FClear.No wind100%29.83 "Hg10 mi
3:00 AM73 °FClear.No wind100%29.83 "Hg10 mi
2:00 AM75 °FClear.No wind94%29.86 "Hg10 mi
1:00 AM75 °FClear.No wind100%29.86 "Hg10 mi
12:00 AM77 °FClear.No wind94%29.86 "Hg10 mi
11:00 PM
Sat, Jul 23
77 °FPassing clouds.3 mph94%29.89 "HgN/A
10:00 PM75 °FClear.No wind100%29.86 "Hg10 mi
9:00 PM77 °FClear.No wind94%29.83 "Hg10 mi
8:00 PM77 °FPassing clouds.3 mph94%29.80 "HgN/A
7:00 PM77 °FPassing clouds.No wind94%29.80 "HgN/A
Weather by CustomWeather, © 2016

See weather overviewHow to use our weather pages